Location: El Limón
(10.3059°N, 67.6321°W)
Time: 13:30:47
(UTC+00:00)

Nadezhda 2 Rocket - Pass Details

Date: 18 December 2025
Orbit: 946 x 1011 km, 83.0° (Epoch: 12 January)

Event Time Altitude Azimuth Distance (km) Brightness Sun altitude
Rises 00:13:07 0° 320° (NW) 3,608 7.7 -28.3°
Reaches altitude 10° 00:17:28 10° 291° (WNW) 2,671 7.3 -29.3°
Maximum altitude 00:19:35 12° 270° (W) 2,540 7.4 -29.8°
Drops below altitude 10° 00:21:42 10° 250° (WSW) 2,682 7.7 -30.3°
Sets 00:26:08 0° 220° (SW) 3,643 8.3 -31.3°
